owner,sensor,date,latitude,longitude,vertical_datum,direction_of_sea_water_velocity,sea_water_speed,upward_sea_water_velocity,qcFlag 
TABS,ioos:station:wmo:42043:1,2011-11-01T00:00:00Z,28.9818,-94.9186,2.0,321.9659534,15.45119089,-99999.0,'11111222,11111222,99999999' 
TABS,ioos:station:wmo:42043:1,2011-11-01T00:30:00Z,28.9818,-94.9186,2.0,319.4183543,16.06370132,-99999.0,'11111222,11111222,99999999' 
TABS,ioos:station:wmo:42043:1,2011-11-01T01:00:00Z,28.9818,-94.9186,2.0,333.6885535,12.13749562,-99999.0,'11111222,11111222,99999999' 
TABS,ioos:station:wmo:42043:1,2011-11-01T01:30:00Z,28.9818,-94.9186,2.0,343.2365868,11.92686044,-99999.0,'11111222,11111222,99999999' 
TABS,ioos:station:wmo:42043:1,2011-11-01T02:00:00Z,28.9818,-94.9186,2.0,345.2148939,14.65525503,-99999.0,'11111222,11111222,99999999' 
TABS,ioos:station:wmo:42043:1,2011-11-01T02:30:00Z,28.9818,-94.9186,2.0,341.3458812,14.03745347,-99999.0,'11111222,11111222,99999999' 
TABS,ioos:station:wmo:42043:1,2011-11-01T03:00:00Z,28.9818,-94.9186,2.0,343.9273313,14.19487584,-99999.0,'11111222,11111222,99999999' 
TABS,ioos:station:wmo:42043:1,2011-11-01T03:30:00Z,28.9818,-94.9186,2.0,353.7327437,10.44241351,-99999.0,'11111222,11111222,99999999' 
TABS,ioos:station:wmo:42043:1,2011-11-01T04:00:00Z,28.9818,-94.9186,2.0,8.357720743,9.975941058,-99999.0,'11133222,11111222,99999999' 
TABS,ioos:station:wmo:42043:1,2011-11-01T04:30:00Z,28.9818,-94.9186,2.0,343.1559664,10.59455049,-99999.0,'11111222,11111222,99999999' 
TABS,ioos:station:wmo:42043:1,2011-11-01T05:00:00Z,28.9818,-94.9186,2.0,349.7490357,8.597237929,-99999.0,'11133222,11111222,99999999' 
TABS,ioos:station:wmo:42043:1,2011-11-01T05:30:00Z,28.9818,-94.9186,2.0,5.558922622,8.258837691,-99999.0,'11133222,11111222,99999999' 
TABS,ioos:station:wmo:42043:1,2011-11-01T06:00:00Z,28.9818,-94.9186,2.0,352.8059893,7.186577767,-99999.0,'11133222,11111222,99999999' 
TABS,ioos:station:wmo:42043:1,2011-11-01T06:30:00Z,28.9818,-94.9186,2.0,356.8909103,4.055970907,-99999.0,'11133222,11111222,99999999' 
TABS,ioos:station:wmo:42043:1,2011-11-01T07:00:00Z,28.9818,-94.9186,2.0,346.9223321,4.64035559,-99999.0,'11133222,11111222,99999999' 
TABS,ioos:station:wmo:42043:1,2011-11-01T07:30:00Z,28.9818,-94.9186,2.0,16.0444398,3.184022613,-99999.0,'11133222,11111222,99999999' 
TABS,ioos:station:wmo:42043:1,2011-11-01T08:00:00Z,28.9818,-94.9186,2.0,349.0812467,5.173664079,-99999.0,'11133222,11111222,99999999' 
TABS,ioos:station:wmo:42043:1,2011-11-01T08:30:00Z,28.9818,-94.9186,2.0,346.8410653,4.436496365,-99999.0,'11133222,11111222,99999999' 
TABS,ioos:station:wmo:42043:1,2011-11-01T09:00:00Z,28.9818,-94.9186,2.0,329.8457331,4.857324366,-99999.0,'11133222,11111222,99999999' 
TABS,ioos:station:wmo:42043:1,2011-11-01T09:30:00Z,28.9818,-94.9186,2.0,18.34240485,7.81716061,-99999.0,'11133222,11111222,99999999' 
TABS,ioos:station:wmo:42043:1,2011-11-01T10:00:00Z,28.9818,-94.9186,2.0,20.27688238,6.001941353,-99999.0,'11133222,11111222,99999999' 
TABS,ioos:station:wmo:42043:1,2011-11-01T10:30:00Z,28.9818,-94.9186,2.0,20.05500634,6.823759961,-99999.0,'11133222,11111222,99999999' 
TABS,ioos:station:wmo:42043:1,2011-11-01T11:00:00Z,28.9818,-94.9186,2.0,354.9634395,5.922870925,-99999.0,'11133222,11111222,99999999' 
TABS,ioos:station:wmo:42043:1,2011-11-01T11:30:00Z,28.9818,-94.9186,2.0,26.29493904,1.89620674,-99999.0,'11133222,11111222,99999999' 
TABS,ioos:station:wmo:42043:1,2011-11-01T12:00:00Z,28.9818,-94.9186,2.0,356.9554391,3.765315392,-99999.0,'11133222,11111222,99999999' 
TABS,ioos:station:wmo:42043:1,2011-11-01T12:30:00Z,28.9818,-94.9186,2.0,355.646423,6.849766419,-99999.0,'11133222,11111222,99999999' 
TABS,ioos:station:wmo:42043:1,2011-11-01T13:00:00Z,28.9818,-94.9186,2.0,44.81468308,2.184971396,-99999.0,'11133222,11111222,99999999' 
TABS,ioos:station:wmo:42043:1,2011-11-01T13:30:00Z,28.9818,-94.9186,2.0,251.322921,2.997865908,-99999.0,'11133222,11111222,99999999' 
TABS,ioos:station:wmo:42043:1,2011-11-01T14:00:00Z,28.9818,-94.9186,2.0,295.6809848,2.607565915,-99999.0,'11133222,11111222,99999999' 
TABS,ioos:station:wmo:42043:1,2011-11-01T14:30:00Z,28.9818,-94.9186,2.0,242.3814799,6.083132417,-99999.0,'11133222,11111222,99999999' 
TABS,ioos:station:wmo:42043:1,2011-11-01T15:00:00Z,28.9818,-94.9186,2.0,233.6623222,2.582111539,-99999.0,'11133222,11111222,99999999' 
TABS,ioos:station:wmo:42043:1,2011-11-01T15:30:00Z,28.9818,-94.9186,2.0,259.164192,7.340878694,-99999.0,'11133222,11111222,99999999' 
TABS,ioos:station:wmo:42043:1,2011-11-01T16:00:00Z,28.9818,-94.9186,2.0,276.3565177,3.974430777,-99999.0,'11133222,11111222,99999999' 
TABS,ioos:station:wmo:42043:1,2011-11-01T16:30:00Z,28.9818,-94.9186,2.0,249.5133802,7.68609784,-99999.0,'11133222,11111222,99999999' 
TABS,ioos:station:wmo:42043:1,2011-11-01T17:00:00Z,28.9818,-94.9186,2.0,266.0656708,6.996484832,-99999.0,'11133222,11111222,99999999' 
TABS,ioos:station:wmo:42043:1,2011-11-01T17:30:00Z,28.9818,-94.9186,2.0,265.7248237,4.963809021,-99999.0,'11133222,11111222,99999999' 
TABS,ioos:station:wmo:42043:1,2011-11-01T18:00:00Z,28.9818,-94.9186,2.0,291.1089488,7.524925249,-99999.0,'11133222,11111222,99999999' 
TABS,ioos:station:wmo:42043:1,2011-11-01T18:30:00Z,28.9818,-94.9186,2.0,282.4644481,6.718340569,-99999.0,'11133222,11111222,99999999' 
TABS,ioos:station:wmo:42043:1,2011-11-01T19:00:00Z,28.9818,-94.9186,2.0,304.7760941,6.294203683,-99999.0,'11133222,11111222,99999999' 
TABS,ioos:station:wmo:42043:1,2011-11-01T19:30:00Z,28.9818,-94.9186,2.0,305.9767454,7.438904489,-99999.0,'11133222,11111222,99999999' 
TABS,ioos:station:wmo:42043:1,2011-11-01T20:00:00Z,28.9818,-94.9186,2.0,297.7929859,12.52485529,-99999.0,'11111222,11111222,99999999' 
TABS,ioos:station:wmo:42043:1,2011-11-01T20:30:00Z,28.9818,-94.9186,2.0,311.1282509,7.434520832,-99999.0,'11133222,11111222,99999999' 
TABS,ioos:station:wmo:42043:1,2011-11-01T21:00:00Z,28.9818,-94.9186,2.0,305.2757548,11.42842509,-99999.0,'11111222,11111222,99999999' 
TABS,ioos:station:wmo:42043:1,2011-11-01T21:30:00Z,28.9818,-94.9186,2.0,320.178994,9.32236558,-99999.0,'11133222,11111222,99999999' 
TABS,ioos:station:wmo:42043:1,2011-11-01T22:00:00Z,28.9818,-94.9186,2.0,323.2982569,10.24004395,-99999.0,'11111222,11111222,99999999' 
TABS,ioos:station:wmo:42043:1,2011-11-01T22:30:00Z,28.9818,-94.9186,2.0,326.0587691,8.847553334,-99999.0,'11133222,11111222,99999999' 
TABS,ioos:station:wmo:42043:1,2011-11-01T23:00:00Z,28.9818,-94.9186,2.0,331.1042187,9.126236902,-99999.0,'11133222,11111222,99999999' 
TABS,ioos:station:wmo:42043:1,2011-11-01T23:30:00Z,28.9818,-94.9186,2.0,358.3821197,7.082824295,-99999.0,'11133222,11111222,99999999' 
TABS,ioos:station:wmo:42043:1,2011-11-02T00:00:00Z,28.9818,-94.9186,2.0,323.0619455,8.370005974,-99999.0,'11133222,11111222,99999999' 
TABS,ioos:station:wmo:42043:1,2011-11-02T00:30:00Z,28.9818,-94.9186,2.0,302.3669833,5.884165191,-99999.0,'11133222,11111222,99999999' 
TABS,ioos:station:wmo:42043:1,2011-11-02T01:00:00Z,28.9818,-94.9186,2.0,309.3156404,7.781086042,-99999.0,'11133222,11111222,99999999' 
TABS,ioos:station:wmo:42043:1,2011-11-02T01:30:00Z,28.9818,-94.9186,2.0,330.4798663,6.332021794,-99999.0,'11133222,11111222,99999999' 
TABS,ioos:station:wmo:42043:1,2011-11-02T02:00:00Z,28.9818,-94.9186,2.0,304.2724406,4.368489441,-99999.0,'11133222,11111222,99999999' 
TABS,ioos:station:wmo:42043:1,2011-11-02T02:30:00Z,28.9818,-94.9186,2.0,262.5809464,1.936207633,-99999.0,'11133222,11111222,99999999' 
TABS,ioos:station:wmo:42043:1,2011-11-02T03:00:00Z,28.9818,-94.9186,2.0,265.8261987,6.046031756,-99999.0,'11133222,11111222,99999999' 
TABS,ioos:station:wmo:42043:1,2011-11-02T03:30:00Z,28.9818,-94.9186,2.0,268.8790247,8.181564643,-99999.0,'11133222,11111222,99999999' 
TABS,ioos:station:wmo:42043:1,2011-11-02T04:00:00Z,28.9818,-94.9186,2.0,239.5036805,10.5029234,-99999.0,'11111222,11111222,99999999' 
TABS,ioos:station:wmo:42043:1,2011-11-02T04:30:00Z,28.9818,-94.9186,2.0,237.4182392,12.75771923,-99999.0,'11111222,11111222,99999999' 
TABS,ioos:station:wmo:42043:1,2011-11-02T05:00:00Z,28.9818,-94.9186,2.0,227.5837201,11.91979866,-99999.0,'11111222,11111222,99999999' 
TABS,ioos:station:wmo:42043:1,2011-11-02T05:30:00Z,28.9818,-94.9186,2.0,229.2810251,11.65027467,-99999.0,'11111222,11111222,99999999' 
TABS,ioos:station:wmo:42043:1,2011-11-02T06:00:00Z,28.9818,-94.9186,2.0,241.0216144,13.80878344,-99999.0,'11111222,11111222,99999999' 
TABS,ioos:station:wmo:42043:1,2011-11-02T06:30:00Z,28.9818,-94.9186,2.0,225.8677337,17.73627357,-99999.0,'11111222,11111222,99999999' 
TABS,ioos:station:wmo:42043:1,2011-11-02T07:00:00Z,28.9818,-94.9186,2.0,239.3540128,14.517579,-99999.0,'11111222,11111222,99999999' 
TABS,ioos:station:wmo:42043:1,2011-11-02T07:30:00Z,28.9818,-94.9186,2.0,235.8791199,15.13542203,-99999.0,'11111222,11111222,99999999' 
TABS,ioos:station:wmo:42043:1,2011-11-02T08:00:00Z,28.9818,-94.9186,2.0,236.4869434,15.23214036,-99999.0,'11111222,11111222,99999999' 
TABS,ioos:station:wmo:42043:1,2011-11-02T08:30:00Z,28.9818,-94.9186,2.0,238.5629234,15.16613662,-99999.0,'11111222,11111222,99999999' 
TABS,ioos:station:wmo:42043:1,2011-11-02T09:00:00Z,28.9818,-94.9186,2.0,237.9820585,14.9194705,-99999.0,'11111222,11111222,99999999' 
TABS,ioos:station:wmo:42043:1,2011-11-02T09:30:00Z,28.9818,-94.9186,2.0,240.3269865,13.77654891,-99999.0,'11111222,11111222,99999999' 
TABS,ioos:station:wmo:42043:1,2011-11-02T10:00:00Z,28.9818,-94.9186,2.0,230.5537865,14.68483912,-99999.0,'11111222,11111222,99999999' 
TABS,ioos:station:wmo:42043:1,2011-11-02T10:30:00Z,28.9818,-94.9186,2.0,237.4809194,14.78862401,-99999.0,'11111222,11111222,99999999' 
TABS,ioos:station:wmo:42043:1,2011-11-02T11:00:00Z,28.9818,-94.9186,2.0,249.0751263,18.20027472,-99999.0,'11111222,11111222,99999999' 
TABS,ioos:station:wmo:42043:1,2011-11-02T11:30:00Z,28.9818,-94.9186,2.0,239.0719678,16.3438184,-99999.0,'11111222,11111222,99999999' 
TABS,ioos:station:wmo:42043:1,2011-11-02T12:00:00Z,28.9818,-94.9186,2.0,248.5493785,15.14931022,-99999.0,'11111222,11111222,99999999' 
TABS,ioos:station:wmo:42043:1,2011-11-02T12:30:00Z,28.9818,-94.9186,2.0,241.6176014,18.61791879,-99999.0,'11111222,11111222,99999999' 
TABS,ioos:station:wmo:42043:1,2011-11-02T13:00:00Z,28.9818,-94.9186,2.0,247.7332738,18.0780364,-99999.0,'11111222,11111222,99999999' 
TABS,ioos:station:wmo:42043:1,2011-11-02T13:30:00Z,28.9818,-94.9186,2.0,249.9449197,18.45926597,-99999.0,'11111222,11111222,99999999' 
TABS,ioos:station:wmo:42043:1,2011-11-02T14:00:00Z,28.9818,-94.9186,2.0,240.8682887,19.57628412,-99999.0,'11111222,11111222,99999999' 
TABS,ioos:station:wmo:42043:1,2011-11-02T14:30:00Z,28.9818,-94.9186,2.0,242.9627889,17.37930954,-99999.0,'11111222,11111222,99999999' 
TABS,ioos:station:wmo:42043:1,2011-11-02T15:00:00Z,28.9818,-94.9186,2.0,243.5340328,15.46019728,-99999.0,'11111222,11111222,99999999' 
TABS,ioos:station:wmo:42043:1,2011-11-02T15:30:00Z,28.9818,-94.9186,2.0,241.2049431,21.8405586,-99999.0,'11111222,11111222,99999999' 
TABS,ioos:station:wmo:42043:1,2011-11-02T16:00:00Z,28.9818,-94.9186,2.0,239.3884208,25.92250181,-99999.0,'11111222,11111222,99999999' 
TABS,ioos:station:wmo:42043:1,2011-11-02T16:30:00Z,28.9818,-94.9186,2.0,238.9127118,25.52590841,-99999.0,'11111222,11111222,99999999' 
TABS,ioos:station:wmo:42043:1,2011-11-02T17:00:00Z,28.9818,-94.9186,2.0,231.0693248,24.47582481,-99999.0,'11111222,11111222,99999999' 
TABS,ioos:station:wmo:42043:1,2011-11-02T17:30:00Z,28.9818,-94.9186,2.0,237.6296712,26.48564328,-99999.0,'11111222,11111222,99999999' 
TABS,ioos:station:wmo:42043:1,2011-11-02T18:00:00Z,28.9818,-94.9186,2.0,243.1315916,27.06127307,-99999.0,'11111222,11111222,99999999' 
TABS,ioos:station:wmo:42043:1,2011-11-02T18:30:00Z,28.9818,-94.9186,2.0,249.0067748,30.39763971,-99999.0,'11111222,11111222,99999999' 
TABS,ioos:station:wmo:42043:1,2011-11-02T19:00:00Z,28.9818,-94.9186,2.0,247.8723753,31.67270907,-99999.0,'11111222,11111222,99999999' 
TABS,ioos:station:wmo:42043:1,2011-11-02T19:30:00Z,28.9818,-94.9186,2.0,249.5802536,28.94903971,-99999.0,'11111222,11111222,99999999' 
TABS,ioos:station:wmo:42043:1,2011-11-02T20:00:00Z,28.9818,-94.9186,2.0,256.5509955,34.05379274,-99999.0,'11111222,11111222,99999999' 
TABS,ioos:station:wmo:42043:1,2011-11-02T20:30:00Z,28.9818,-94.9186,2.0,246.2036559,32.49222984,-99999.0,'11111222,11111222,99999999' 
TABS,ioos:station:wmo:42043:1,2011-11-02T21:00:00Z,28.9818,-94.9186,2.0,251.9662718,27.06976173,-99999.0,'11111222,11111222,99999999' 
TABS,ioos:station:wmo:42043:1,2011-11-02T21:30:00Z,28.9818,-94.9186,2.0,258.183659,23.53877652,-99999.0,'11111222,11111222,99999999' 
TABS,ioos:station:wmo:42043:1,2011-11-02T22:00:00Z,28.9818,-94.9186,2.0,246.7099528,23.95163669,-99999.0,'11111222,11111222,99999999' 
TABS,ioos:station:wmo:42043:1,2011-11-02T22:30:00Z,28.9818,-94.9186,2.0,248.9072889,23.2582652,-99999.0,'11111222,11111222,99999999' 
TABS,ioos:station:wmo:42043:1,2011-11-02T23:00:00Z,28.9818,-94.9186,2.0,252.4420266,20.65209432,-99999.0,'11111222,11111222,99999999' 
TABS,ioos:station:wmo:42043:1,2011-11-02T23:30:00Z,28.9818,-94.9186,2.0,259.1184819,19.65334832,-99999.0,'11111222,11111222,99999999' 
TABS,ioos:station:wmo:42043:1,2011-11-03T00:00:00Z,28.9818,-94.9186,2.0,258.6836979,18.8055763,-99999.0,'11111222,11111222,99999999' 
TABS,ioos:station:wmo:42043:1,2011-11-03T00:30:00Z,28.9818,-94.9186,2.0,277.8646017,17.97909063,-99999.0,'11111222,11111222,99999999' 
TABS,ioos:station:wmo:42043:1,2011-11-03T01:00:00Z,28.9818,-94.9186,2.0,278.4435921,12.94024729,-99999.0,'11111222,11111222,99999999' 
TABS,ioos:station:wmo:42043:1,2011-11-03T01:30:00Z,28.9818,-94.9186,2.0,267.8307702,9.777003631,-99999.0,'11133222,11111222,99999999' 
TABS,ioos:station:wmo:42043:1,2011-11-03T02:00:00Z,28.9818,-94.9186,2.0,270.6865635,8.350598781,-99999.0,'11133222,11111222,99999999' 
TABS,ioos:station:wmo:42043:1,2011-11-03T02:30:00Z,28.9818,-94.9186,2.0,268.6343008,10.07285957,-99999.0,'11111222,11111222,99999999' 
TABS,ioos:station:wmo:42043:1,2011-11-03T03:00:00Z,28.9818,-94.9186,2.0,277.5612712,8.967970785,-99999.0,'11133222,11111222,99999999' 
TABS,ioos:station:wmo:42043:1,2011-11-03T03:30:00Z,28.9818,-94.9186,2.0,253.2798697,8.029458263,-99999.0,'11133222,11111222,99999999' 
TABS,ioos:station:wmo:42043:1,2011-11-03T04:00:00Z,28.9818,-94.9186,2.0,262.6360296,9.831078272,-99999.0,'11133222,11111222,99999999' 
TABS,ioos:station:wmo:42043:1,2011-11-03T04:30:00Z,28.9818,-94.9186,2.0,236.1865253,9.038860548,-99999.0,'11133222,11111222,99999999' 
TABS,ioos:station:wmo:42043:1,2011-11-03T05:00:00Z,28.9818,-94.9186,2.0,232.6386003,13.29848864,-99999.0,'11111222,11111222,99999999' 
TABS,ioos:station:wmo:42043:1,2011-11-03T05:30:00Z,28.9818,-94.9186,2.0,245.1721926,12.24139289,-99999.0,'11111222,11111222,99999999' 
TABS,ioos:station:wmo:42043:1,2011-11-03T06:00:00Z,28.9818,-94.9186,2.0,236.9266138,14.16509089,-99999.0,'11111222,11111222,99999999' 
TABS,ioos:station:wmo:42043:1,2011-11-03T06:30:00Z,28.9818,-94.9186,2.0,233.1082036,15.94200113,-99999.0,'11111222,11111222,99999999' 
TABS,ioos:station:wmo:42043:1,2011-11-03T07:00:00Z,28.9818,-94.9186,2.0,243.2585671,17.46824548,-99999.0,'11111222,11111222,99999999' 
TABS,ioos:station:wmo:42043:1,2011-11-03T07:30:00Z,28.9818,-94.9186,2.0,241.9729284,18.4088294,-99999.0,'11111222,11111222,99999999' 
TABS,ioos:station:wmo:42043:1,2011-11-03T08:00:00Z,28.9818,-94.9186,2.0,222.1966762,20.09880842,-99999.0,'11111222,11111222,99999999' 
TABS,ioos:station:wmo:42043:1,2011-11-03T08:30:00Z,28.9818,-94.9186,2.0,226.2383948,27.80286496,-99999.0,'11111222,11111222,99999999' 
TABS,ioos:station:wmo:42043:1,2011-11-03T09:00:00Z,28.9818,-94.9186,2.0,209.5481717,27.49618155,-99999.0,'11111222,11111222,99999999' 
TABS,ioos:station:wmo:42043:1,2011-11-03T09:30:00Z,28.9818,-94.9186,2.0,214.033801,31.41046482,-99999.0,'11111222,11111222,99999999' 
TABS,ioos:station:wmo:42043:1,2011-11-03T10:00:00Z,28.9818,-94.9186,2.0,218.1581618,26.05858975,-99999.0,'11111222,11111222,99999999' 
TABS,ioos:station:wmo:42043:1,2011-11-03T10:30:00Z,28.9818,-94.9186,2.0,218.7929179,31.52375929,-99999.0,'11111222,11111222,99999999' 
TABS,ioos:station:wmo:42043:1,2011-11-03T11:00:00Z,28.9818,-94.9186,2.0,229.8038932,32.33646394,-99999.0,'11111222,11111222,99999999' 
TABS,ioos:station:wmo:42043:1,2011-11-03T11:30:00Z,28.9818,-94.9186,2.0,224.6972313,30.80907172,-99999.0,'11111222,11111222,99999999' 
TABS,ioos:station:wmo:42043:1,2011-11-03T12:00:00Z,28.9818,-94.9186,2.0,224.6274201,23.94314098,-99999.0,'11111222,11111222,99999999' 
TABS,ioos:station:wmo:42043:1,2011-11-03T12:30:00Z,28.9818,-94.9186,2.0,224.0423638,19.04504397,-99999.0,'11111222,11111222,99999999' 
TABS,ioos:station:wmo:42043:1,2011-11-03T13:00:00Z,28.9818,-94.9186,2.0,231.7425064,15.77862478,-99999.0,'11111222,11111222,99999999' 
TABS,ioos:station:wmo:42043:1,2011-11-03T13:30:00Z,28.9818,-94.9186,2.0,234.2682112,14.09278184,-99999.0,'11111222,11111222,99999999' 
TABS,ioos:station:wmo:42043:1,2011-11-03T14:00:00Z,28.9818,-94.9186,2.0,217.5912083,7.622604542,-99999.0,'11133222,11111222,99999999' 
TABS,ioos:station:wmo:42043:1,2011-11-03T14:30:00Z,28.9818,-94.9186,2.0,227.4892314,11.55796262,-99999.0,'11111222,11111222,99999999' 
TABS,ioos:station:wmo:42043:1,2011-11-03T15:00:00Z,28.9818,-94.9186,2.0,231.6131293,9.823441352,-99999.0,'11133222,11111222,99999999' 
TABS,ioos:station:wmo:42043:1,2011-11-03T15:30:00Z,28.9818,-94.9186,2.0,246.6897533,8.112126725,-99999.0,'11133222,11111222,99999999' 
TABS,ioos:station:wmo:42043:1,2011-11-03T16:00:00Z,28.9818,-94.9186,2.0,249.0409427,7.827905211,-99999.0,'11133222,11111222,99999999' 
TABS,ioos:station:wmo:42043:1,2011-11-03T16:30:00Z,28.9818,-94.9186,2.0,267.4516392,8.098005927,-99999.0,'11133222,11111222,99999999' 
TABS,ioos:station:wmo:42043:1,2011-11-03T17:00:00Z,28.9818,-94.9186,2.0,255.7543998,7.314923103,-99999.0,'11133222,11111222,99999999' 
TABS,ioos:station:wmo:42043:1,2011-11-03T17:30:00Z,28.9818,-94.9186,2.0,276.0336598,7.421105039,-99999.0,'11133222,11111222,99999999' 
TABS,ioos:station:wmo:42043:1,2011-11-03T18:00:00Z,28.9818,-94.9186,2.0,196.5154535,3.588035674,-99999.0,'11133222,11111222,99999999' 
TABS,ioos:station:wmo:42043:1,2011-11-03T18:30:00Z,28.9818,-94.9186,2.0,252.8704927,6.383134026,-99999.0,'11133222,11111222,99999999' 
TABS,ioos:station:wmo:42043:1,2011-11-03T19:00:00Z,28.9818,-94.9186,2.0,319.0172917,5.046999108,-99999.0,'11133222,11111222,99999999' 
TABS,ioos:station:wmo:42043:1,2011-11-03T19:30:00Z,28.9818,-94.9186,2.0,350.2695906,5.265757305,-99999.0,'11133222,11111222,99999999' 
TABS,ioos:station:wmo:42043:1,2011-11-03T20:00:00Z,28.9818,-94.9186,2.0,327.0368238,4.374162777,-99999.0,'11133222,11111222,99999999' 
TABS,ioos:station:wmo:42043:1,2011-11-03T20:30:00Z,28.9818,-94.9186,2.0,14.2812728,0.567538545,-99999.0,'11133222,11111222,99999999' 
TABS,ioos:station:wmo:42043:1,2011-11-03T21:00:00Z,28.9818,-94.9186,2.0,343.6863962,3.417601498,-99999.0,'11133222,11111222,99999999' 
TABS,ioos:station:wmo:42043:1,2011-11-03T21:30:00Z,28.9818,-94.9186,2.0,172.1081056,2.03931361,-99999.0,'11133222,11111222,99999999' 
TABS,ioos:station:wmo:42043:1,2011-11-03T22:00:00Z,28.9818,-94.9186,2.0,327.7246416,0.449444101,-99999.0,'11133222,11111222,99999999' 
TABS,ioos:station:wmo:42043:1,2011-11-03T22:30:00Z,28.9818,-94.9186,2.0,328.5319789,3.505567001,-99999.0,'11133222,11111222,99999999' 
TABS,ioos:station:wmo:42043:1,2011-11-03T23:00:00Z,28.9818,-94.9186,2.0,14.63590523,4.86795645,-99999.0,'11133222,11111222,99999999' 
TABS,ioos:station:wmo:42043:1,2011-11-03T23:30:00Z,28.9818,-94.9186,2.0,77.39986964,5.225858781,-99999.0,'11133222,11111222,99999999' 
TABS,ioos:station:wmo:42043:1,2011-11-04T00:00:00Z,28.9818,-94.9186,2.0,36.76137893,8.438015169,-99999.0,'11133222,11111222,99999999' 
TABS,ioos:station:wmo:42043:1,2011-11-04T00:30:00Z,28.9818,-94.9186,2.0,350.2935807,6.168306088,-99999.0,'11133222,11111222,99999999' 
TABS,ioos:station:wmo:42043:1,2011-11-04T01:00:00Z,28.9818,-94.9186,2.0,48.81819952,13.37987294,-99999.0,'11111222,11111222,99999999' 
TABS,ioos:station:wmo:42043:1,2011-11-04T01:30:00Z,28.9818,-94.9186,2.0,52.28316147,12.71738967,-99999.0,'11111222,11111222,99999999' 
TABS,ioos:station:wmo:42043:1,2011-11-04T02:00:00Z,28.9818,-94.9186,2.0,51.10489902,17.48692369,-99999.0,'11111222,11111222,99999999' 
TABS,ioos:station:wmo:42043:1,2011-11-04T02:30:00Z,28.9818,-94.9186,2.0,50.51622353,15.96260944,-99999.0,'11111222,11111222,99999999' 
TABS,ioos:station:wmo:42043:1,2011-11-04T03:00:00Z,28.9818,-94.9186,2.0,51.41962063,13.53403118,-99999.0,'11111222,11111222,99999999' 
TABS,ioos:station:wmo:42043:1,2011-11-04T03:30:00Z,28.9818,-94.9186,2.0,38.32590952,16.60936182,-99999.0,'11111222,11111222,99999999' 
TABS,ioos:station:wmo:42043:1,2011-11-04T04:00:00Z,28.9818,-94.9186,2.0,53.1049148,22.67000221,-99999.0,'11111222,11111222,99999999' 
TABS,ioos:station:wmo:42043:1,2011-11-04T04:30:00Z,28.9818,-94.9186,2.0,54.48337736,19.05531422,-99999.0,'11111222,11111222,99999999' 
TABS,ioos:station:wmo:42043:1,2011-11-04T05:00:00Z,28.9818,-94.9186,2.0,52.11989291,19.28299769,-99999.0,'11111222,11111222,99999999' 
TABS,ioos:station:wmo:42043:1,2011-11-04T05:30:00Z,28.9818,-94.9186,2.0,60.94546384,15.85527042,-99999.0,'11111222,11111222,99999999' 
TABS,ioos:station:wmo:42043:1,2011-11-04T06:00:00Z,28.9818,-94.9186,2.0,57.72094878,14.64297784,-99999.0,'11111222,11111222,99999999' 
TABS,ioos:station:wmo:42043:1,2011-11-04T06:30:00Z,28.9818,-94.9186,2.0,49.74386216,16.92955995,-99999.0,'11111222,11111222,99999999' 
TABS,ioos:station:wmo:42043:1,2011-11-04T07:00:00Z,28.9818,-94.9186,2.0,60.36569081,12.8624259,-99999.0,'11111222,11111222,99999999' 
TABS,ioos:station:wmo:42043:1,2011-11-04T07:30:00Z,28.9818,-94.9186,2.0,57.33090869,11.9862004,-99999.0,'11111222,11111222,99999999' 
TABS,ioos:station:wmo:42043:1,2011-11-04T08:00:00Z,28.9818,-94.9186,2.0,72.462199,11.71451237,-99999.0,'11111222,11111222,99999999' 
TABS,ioos:station:wmo:42043:1,2011-11-04T08:30:00Z,28.9818,-94.9186,2.0,70.56001063,12.79970703,-99999.0,'11111222,11111222,99999999' 
TABS,ioos:station:wmo:42043:1,2011-11-04T09:00:00Z,28.9818,-94.9186,2.0,68.70269575,7.598947296,-99999.0,'11133222,11111222,99999999' 
TABS,ioos:station:wmo:42043:1,2011-11-04T09:30:00Z,28.9818,-94.9186,2.0,40.94935515,9.10907789,-99999.0,'11133222,11111222,99999999' 
TABS,ioos:station:wmo:42043:1,2011-11-04T10:00:00Z,28.9818,-94.9186,2.0,62.5896637,6.668680529,-99999.0,'11133222,11111222,99999999' 
TABS,ioos:station:wmo:42043:1,2011-11-04T10:30:00Z,28.9818,-94.9186,2.0,48.7306928,10.97634274,-99999.0,'11111222,11111222,99999999' 
TABS,ioos:station:wmo:42043:1,2011-11-04T11:00:00Z,28.9818,-94.9186,2.0,51.16659086,11.84895776,-99999.0,'11111222,11111222,99999999' 
TABS,ioos:station:wmo:42043:1,2011-11-04T11:30:00Z,28.9818,-94.9186,2.0,61.58092416,11.47256292,-99999.0,'11111222,11111222,99999999' 
TABS,ioos:station:wmo:42043:1,2011-11-04T12:00:00Z,28.9818,-94.9186,2.0,42.53638193,9.540618429,-99999.0,'11133222,11111222,99999999' 
TABS,ioos:station:wmo:42043:1,2011-11-04T12:30:00Z,28.9818,-94.9186,2.0,45.75894358,14.94954849,-99999.0,'11111222,11111222,99999999' 
TABS,ioos:station:wmo:42043:1,2011-11-04T13:00:00Z,28.9818,-94.9186,2.0,34.69871517,10.55758022,-99999.0,'11111222,11111222,99999999' 
TABS,ioos:station:wmo:42043:1,2011-11-04T13:30:00Z,28.9818,-94.9186,2.0,64.18049201,11.68668045,-99999.0,'11111222,11111222,99999999' 
TABS,ioos:station:wmo:42043:1,2011-11-04T14:00:00Z,28.9818,-94.9186,2.0,53.54884839,16.69644573,-99999.0,'11111222,11111222,99999999' 
TABS,ioos:station:wmo:42043:1,2011-11-04T14:30:00Z,28.9818,-94.9186,2.0,45.64582799,13.80360098,-99999.0,'11111222,11111222,99999999' 
TABS,ioos:station:wmo:42043:1,2011-11-04T15:00:00Z,28.9818,-94.9186,2.0,59.81747576,13.96299753,-99999.0,'11111222,11111222,99999999' 
TABS,ioos:station:wmo:42043:1,2011-11-04T15:30:00Z,28.9818,-94.9186,2.0,42.53766678,11.68512302,-99999.0,'11111222,11111222,99999999' 
TABS,ioos:station:wmo:42043:1,2011-11-04T16:00:00Z,28.9818,-94.9186,2.0,45.4142834,14.67284908,-99999.0,'11111222,11111222,99999999' 